Location: ?ejeti?ky
(50.4060°N, 14.9016°E)
Time: 07:13:28
(UTC+00:00)

STARLINK-43 - Pass Details

Date: 07 June 2020
Orbit: 468 x 471 km, 53.0° (Epoch: 08 July)

Event Time Altitude Azimuth Distance (km) Brightness Sun altitude
Exits shadow 23:37:40 29° 232° (SW) 881 4.3 -16.3°
Drops below altitude 10° 23:43:02 10° 71° (ENE) 1,631 6.4 -16.2°
Enters shadow 00:43:40 -61° 258° (WSW) 11,643 10.3 -13.3°
Maximum altitude 01:17:16 57° 355° (N) 561 4.0 -10.7°
